ECMWFFLT2_sfc_dewp_015.txt.gz
Dewpoint
61 61 61 61 58 57 58 56 55 55 55 55 55 55 55 55 57 57 57 54 54 53 54 52 51 51 51 50 50 50 51 53 54 54 53 53 52 52 52 53 53 51 50 53 52 50 47 41 33 30 34 31
60 60 61 61 61 60 61 60 58 58 55 55 56 56 57 58 58 58 58 57 54 53 53 53 52 51 50 50 49 51 50 51 54 54 53 53 52 52 52 52 53 52 51 53 52 50 48 43 34 31 31 29
56 59 60 60 61 61 60 60 60 59 58 57 58 59 58 58 57 57 58 57 56 53 53 55 54 51 49 49 50 50 50 51 52 54 54 53 52 52 52 50 51 51 51 53 51 50 47 43 35 32 44 30
54 57 59 59 60 60 59 59 60 60 59 58 57 57 58 56 56 56 55 57 54 55 55 55 54 52 50 50 49 48 51 50 52 54 54 54 52 52 51 50 50 51 51 53 51 50 47 41 37 32 28 28
56 56 57 58 59 59 59 58 59 59 59 58 57 56 55 55 53 53 53 54 52 56 53 53 54 52 50 51 49 48 50 50 51 53 53 53 51 51 51 52 52 50 51 52 51 49 45 39 30 31 29 27
43 49 56 57 57 56 57 57 57 56 54 55 52 54 53 52 51 52 51 52 53 52 52 51 53 53 53 51 51 49 50 51 51 52 53 53 51 51 53 53 49 50 50 51 50 47 44 35 31 29 25 20
38 39 43 53 56 55 56 54 54 54 53 52 52 52 51 51 51 50 50 50 51 51 52 50 53 52 51 50 50 51 52 52 51 52 52 52 51 51 55 49 45 45 46 48 49 47 39 32 29 22 20 19
35 36 38 41 49 54 55 54 53 54 53 52 52 52 51 51 51 50 49 52 52 51 50 50 52 52 52 51 52 53 52 53 53 52 52 52 52 52 45 41 41 40 39 44 42 38 35 32 27 20 21 24
34 35 35 37 38 42 51 54 53 54 53 53 53 52 52 50 50 50 49 48 49 48 48 48 49 49 49 47 46 49 49 48 48 50 47 49 50 43 41 40 39 38 38 38 37 35 34 32 27 22 25 20
34 34 34 35 37 38 39 44 50 53 53 54 53 52 52 51 50 50 49 47 48 47 47 47 48 48 48 46 45 46 46 43 45 46 42 45 46 42 40 39 38 38 38 35 35 34 33 32 29 23 21 17
29 31 33 34 36 36 36 39 42 47 52 53 54 54 53 50 50 50 49 48 48 47 46 46 47 46 47 46 44 44 45 44 43 42 41 41 43 41 38 37 37 38 37 36 34 34 33 32 29 23 20 19
28 29 31 32 35 33 37 38 38 40 44 50 54 53 54 53 50 50 50 49 48 47 46 46 46 46 46 45 44 44 44 43 40 38 39 41 42 39 38 37 37 37 36 36 35 34 33 31 29 24 20 19
28 28 28 30 31 32 40 35 35 37 39 43 50 53 53 52 52 52 50 49 48 48 47 46 46 46 45 45 44 43 43 43 41 39 39 40 41 40 39 37 36 36 36 36 35 34 33 31 27 23 20 19
28 28 27 29 30 30 35 33 34 35 36 38 40 47 52 53 53 53 52 50 51 49 47 46 46 46 45 44 44 43 43 42 42 41 39 38 39 39 39 37 36 36 35 35 35 34 33 30 25 23 20 20
28 29 28 30 29 29 30 32 34 34 34 35 37 39 43 50 53 53 53 53 52 50 50 49 45 46 45 44 44 44 43 41 41 40 41 41 40 40 39 37 36 35 34 34 34 34 32 30 23 20 19 19
26 28 29 31 28 28 29 32 32 33 33 35 35 37 39 41 47 51 53 53 52 52 51 51 50 46 45 44 44 44 43 42 40 40 40 39 39 38 38 36 34 33 33 32 32 32 31 27 21 19 18 17
25 26 29 29 29 29 32 29 30 31 32 33 34 36 36 38 40 44 50 52 52 52 52 51 50 48 46 45 44 43 43 42 40 39 38 38 38 38 37 35 34 32 31 30 29 28 27 22 19 17 16 17
24 24 27 32 29 30 30 28 28 30 30 32 34 34 36 36 37 39 41 44 48 51 51 51 50 49 48 47 44 44 42 42 40 39 38 39 38 39 37 35 34 31 29 28 25 24 22 19 16 15 15 16
22 24 25 27 28 29 30 29 28 28 28 30 32 33 34 35 36 36 38 41 43 46 50 50 50 50 49 47 45 43 42 41 40 40 39 39 38 37 36 35 34 31 29 27 24 21 19 16 14 15 14 15
22 21 22 27 32 29 29 30 29 28 27 29 31 31 31 32 34 35 36 38 40 40 44 49 50 50 50 45 43 42 40 40 40 40 39 38 38 37 35 34 32 31 29 27 25 21 19 15 18 12 14 14
22 21 22 24 27 27 29 29 28 28 28 28 29 29 29 31 34 36 36 36 36 36 37 41 46 49 49 46 42 41 41 41 40 39 39 37 37 37 36 34 33 30 30 27 26 22 19 16 17 11 12 13
22 22 23 24 25 29 25 26 27 27 28 28 28 29 29 32 35 35 35 35 35 35 35 36 38 42 48 45 41 40 39 41 40 39 39 37 37 37 36 34 33 30 29 27 25 22 18 17 15 12 10 13
24 25 24 24 23 23 23 25 25 26 25 27 28 28 29 32 35 34 33 34 35 35 35 34 35 37 40 44 40 40 39 39 39 38 37 37 35 36 36 35 33 31 29 29 26 23 18 16 14 12 10 16
22 23 24 24 23 23 24 24 26 26 26 26 27 29 29 30 31 32 32 32 33 34 34 35 35 35 37 37 38 39 39 39 38 38 36 36 35 34 34 34 34 31 28 27 21 23 16 13 12 11 14 13
19 21 22 23 22 22 22 23 24 25 26 26 26 27 27 27 27 29 30 32 33 33 34 35 36 36 37 36 36 37 39 39 38 38 37 36 34 33 32 31 29 27 25 22 17 16 14 11 11 16 14 11
17 20 20 18 19 19 20 21 24 25 25 25 27 27 26 26 26 28 29 30 33 34 33 33 34 36 38 36 36 35 36 38 38 37 36 36 36 33 32 31 26 22 23 20 23 16 9 9 9 13 16 11
17 17 18 18 18 18 18 20 22 23 25 27 27 25 26 26 26 28 30 32 35 35 34 34 34 34 37 35 36 35 35 35 35 36 36 35 35 35 30 30 25 20 25 23 22 15 11 8 8 10 14 12
19 20 22 23 22 21 19 17 23 23 25 26 25 25 26 26 28 31 34 35 35 35 35 35 35 34 35 35 35 34 35 35 36 35 35 36 35 34 29 26 22 19 22 24 15 12 14 9 8 7 7 9
20 22 21 21 19 19 19 18 18 18 21 23 26 26 25 25 27 30 31 33 34 35 36 35 35 35 35 34 34 35 34 35 35 36 35 35 35 34 33 28 25 19 17 19 18 19 10 8 6 8 8 7
22 22 21 19 18 17 17 17 18 18 18 18 19 21 24 25 26 26 26 29 34 35 35 35 35 35 35 34 34 35 34 34 34 35 35 35 35 35 34 30 25 18 17 15 16 18 14 13 13 9 8 7
23 21 20 20 20 18 17 18 19 17 18 18 17 21 21 23 24 25 26 26 26 29 32 34 35 35 34 34 34 35 34 34 34 34 34 35 35 34 36 32 28 22 15 14 13 16 13 14 18 11 8 9

ECMWFFLT2_sfc_dewp_021.txt.gz
Dewpoint
49 50 51 52 53 54 56 57 58 59 59 59 58 58 58 57 59 57 55 55 56 56 54 54 54 54 53 53 53 53 53 53 53 54 56 56 55 55 58 56 55 55 55 52 50 46 44 43 40 39 43 31
44 46 48 50 50 51 51 52 54 55 56 57 57 58 58 57 59 59 60 58 55 55 54 54 54 54 53 53 53 52 53 53 53 54 55 56 56 55 56 56 55 55 54 53 51 48 45 43 41 40 40 30
32 42 43 45 47 48 49 50 51 51 52 53 53 54 55 55 55 57 58 59 60 57 55 56 56 53 54 53 53 53 52 53 53 53 54 56 57 56 55 56 55 55 55 54 52 49 46 44 42 40 39 28
28 36 39 40 42 43 46 47 48 49 50 51 50 50 52 53 53 54 54 58 57 59 59 58 56 58 54 54 53 53 52 53 53 53 54 54 56 55 55 56 55 54 54 55 52 49 46 44 42 36 24 21
29 30 34 35 38 39 41 43 44 46 47 47 47 47 49 51 51 52 52 53 53 57 55 55 56 58 54 55 53 52 52 52 52 53 53 53 55 55 55 56 57 56 55 55 52 48 45 43 33 23 21 20
30 29 29 25 27 30 33 38 40 41 43 46 44 46 46 47 48 50 51 52 53 53 53 53 54 56 57 55 54 53 52 54 53 52 53 53 54 55 55 57 56 54 55 54 51 46 44 35 23 22 21 22
28 25 24 24 26 28 32 33 34 33 38 41 43 44 45 46 48 48 50 51 52 52 53 53 54 54 57 57 55 55 55 55 53 52 52 52 53 55 56 54 50 53 53 52 49 46 38 24 23 22 21 22
24 24 25 24 26 25 24 28 28 28 31 34 38 42 43 48 47 48 49 51 51 51 52 52 53 54 55 55 55 54 54 55 56 56 55 55 56 56 55 50 51 51 52 50 43 38 27 23 23 20 19 24
25 25 25 23 27 27 25 29 25 26 28 30 33 36 38 43 45 47 49 48 48 49 50 51 51 51 52 52 51 52 49 48 48 51 46 46 49 50 51 49 50 50 49 46 38 29 24 23 21 19 22 22
29 25 25 23 27 27 26 32 26 27 28 28 30 32 35 35 40 44 46 47 47 47 49 49 49 49 51 50 49 50 48 46 46 45 44 43 44 47 49 49 48 49 48 41 33 26 24 22 20 18 19 20
25 24 26 25 28 27 26 31 27 28 29 29 30 32 33 34 35 39 44 46 47 48 49 49 49 49 49 48 48 48 48 46 46 45 44 41 42 46 44 44 47 49 46 40 32 26 24 22 19 18 18 19
22 24 25 25 27 25 31 31 28 29 30 31 29 32 32 34 33 35 38 40 44 46 47 49 49 49 48 48 48 48 47 46 45 45 43 39 41 42 43 44 44 44 43 39 32 27 24 22 19 19 17 16
21 23 25 23 20 21 33 27 28 30 31 29 30 30 32 34 32 33 34 36 39 44 44 46 48 49 49 48 48 47 47 46 45 43 43 42 40 43 43 43 42 41 41 40 33 28 25 22 20 20 18 16
20 22 23 22 20 20 32 25 29 32 29 29 30 29 31 32 33 33 35 35 37 39 41 44 45 47 48 49 49 48 47 47 45 44 41 40 39 40 42 41 41 42 41 39 36 31 27 23 20 20 19 18
18 22 22 24 20 20 20 25 32 31 29 30 30 31 31 31 32 33 33 34 35 36 38 40 42 44 46 47 48 49 48 46 45 43 43 42 41 41 42 41 41 41 40 39 36 35 30 26 23 20 19 19
18 20 22 22 19 19 22 29 30 30 30 34 30 31 30 30 30 34 32 33 34 35 37 38 39 41 43 45 47 48 48 48 45 44 43 40 41 40 41 40 39 40 40 39 37 36 33 30 25 22 20 19
18 20 21 19 19 20 25 25 28 29 28 29 29 30 29 29 29 32 31 33 34 36 36 36 37 38 39 41 43 44 45 45 44 42 41 41 39 39 38 38 38 38 40 40 38 36 35 32 29 25 22 20
16 18 18 21 17 21 22 24 27 29 28 29 30 28 28 28 29 30 29 32 33 34 34 34 35 36 36 39 39 42 43 42 42 42 42 42 39 40 39 38 38 37 37 38 37 36 35 33 31 28 24 22
16 18 16 16 18 20 23 24 25 26 26 26 26 26 26 27 28 29 29 31 33 33 33 32 33 33 34 36 37 39 40 41 40 40 41 43 40 39 39 39 37 37 38 37 36 36 35 34 33 30 27 24
14 14 15 17 25 20 21 22 23 23 24 25 25 26 25 25 27 28 28 30 31 31 31 31 31 31 32 33 35 36 36 38 40 42 42 41 41 40 39 39 38 38 37 37 36 35 35 34 34 31 29 26
15 14 15 16 18 19 22 21 22 23 24 24 24 24 23 24 26 27 27 29 31 29 29 29 30 31 32 33 34 34 33 36 39 41 42 43 40 41 42 39 39 38 38 37 37 36 35 34 34 31 29 27
14 16 16 16 17 24 20 20 22 23 23 23 23 24 24 24 25 28 28 28 29 28 28 29 30 30 32 32 32 32 31 35 34 37 39 39 40 39 40 40 40 39 39 39 37 36 34 34 33 32 29 28
19 18 16 16 16 17 19 22 22 23 23 24 23 24 24 26 26 27 27 27 28 27 26 26 28 30 31 32 30 30 30 32 32 33 35 37 38 39 39 40 40 41 40 40 39 37 35 34 32 32 29 29
16 18 19 17 17 19 21 20 24 23 23 23 23 24 24 25 25 26 27 26 26 26 26 26 28 30 29 30 30 29 30 31 31 32 34 35 36 37 38 39 40 40 40 39 38 37 35 32 30 28 27 26
17 17 17 18 18 20 20 21 23 22 20 21 21 23 24 24 25 25 26 27 26 26 27 28 28 30 29 29 31 30 30 30 30 31 32 35 37 37 36 37 38 38 38 38 36 33 33 31 28 28 24 23
19 19 18 20 20 20 20 20 20 19 19 20 22 22 23 23 24 25 25 27 26 27 26 26 27 29 30 30 30 30 31 30 33 31 31 33 35 35 36 36 36 38 37 36 37 35 33 31 27 28 23 19
20 19 21 22 21 19 19 21 21 21 22 22 22 22 22 23 24 25 25 26 27 26 26 26 28 29 31 29 30 30 29 29 29 29 30 31 33 34 34 36 36 36 38 37 37 38 36 34 32 31 28 19
23 22 24 22 21 21 20 20 24 24 22 21 21 20 21 23 24 24 24 25 25 25 25 26 27 28 30 29 30 30 29 29 29 29 29 30 32 34 33 34 34 35 37 38 37 34 35 34 35 34 33 29
19 23 21 20 20 21 21 21 21 21 21 21 23 24 21 19 19 22 24 24 24 25 25 25 26 27 28 30 29 30 29 29 30 30 30 30 32 33 33 33 33 34 34 35 38 37 33 29 31 33 36 35
21 22 21 20 19 18 18 18 17 17 18 20 20 19 18 19 19 21 22 23 23 24 26 26 26 27 28 29 30 30 30 30 29 29 30 31 32 32 33 34 34 33 34 34 35 36 36 33 32 33 31 34
23 21 22 20 20 20 19 19 19 17 18 20 20 19 18 19 21 23 22 22 23 24 25 26 26 26 27 28 29 30 29 29 29 30 30 31 31 33 34 34 33 33 33 33 34 35 35 35 33 32 30 31

ECMWFFLT2_sfc_dewp_027.txt.gz
Dewpoint
40 40 42 44 44 43 43 44 45 47 47 48 48 48 49 50 51 52 54 56 56 57 57 58 59 59 59 59 60 59 58 60 53 53 53 56 58 59 59 58 59 58 57 55 53 52 51 50 50 50 47 45
38 37 38 40 41 42 42 42 42 42 44 45 45 46 46 45 47 49 50 52 53 54 54 56 58 59 58 58 59 58 59 59 59 56 53 53 55 58 58 58 58 58 57 55 54 52 51 50 50 51 48 45
29 35 34 36 38 39 40 40 41 41 41 42 43 44 44 44 44 45 47 48 50 52 53 53 54 57 59 59 59 59 59 59 59 58 58 53 54 56 59 58 59 58 58 56 54 52 51 50 51 52 48 45
26 32 33 33 34 37 38 38 39 40 39 39 40 39 40 41 39 41 42 46 45 49 50 51 52 54 56 57 58 58 58 58 59 58 58 58 55 56 58 59 59 58 57 57 53 50 51 50 50 47 43 45
26 26 30 28 31 34 36 37 37 38 38 38 37 37 37 37 37 38 38 39 41 45 45 49 51 52 54 54 54 55 55 56 57 58 58 58 58 58 58 59 59 58 58 57 52 48 49 49 45 42 43 44
28 28 26 23 22 24 28 32 34 32 33 35 32 36 32 32 34 35 35 37 41 41 43 45 48 49 51 52 52 53 53 53 55 56 57 57 57 56 56 58 59 58 58 56 51 49 49 46 39 40 42 42
27 23 23 24 23 23 29 28 28 29 32 32 32 33 31 32 32 34 35 35 38 39 41 42 46 47 49 50 52 51 51 52 53 54 55 55 54 54 54 59 59 59 60 57 52 49 46 36 34 36 40 42
23 23 22 23 24 21 24 24 25 27 30 31 32 33 31 31 34 34 33 36 37 37 36 39 43 45 46 47 49 50 49 49 51 51 52 52 51 51 52 56 57 57 57 57 53 47 40 31 29 33 37 41
23 24 23 24 24 22 25 24 23 25 29 31 32 32 31 32 32 34 33 33 33 33 34 37 39 42 43 45 46 48 48 48 48 48 49 48 49 48 50 53 53 55 56 55 50 44 36 27 27 31 35 37
24 23 22 24 23 21 25 24 23 24 28 29 30 32 32 31 29 29 30 31 32 34 34 33 34 38 42 44 45 46 47 48 47 47 47 47 47 47 47 49 52 53 55 53 48 41 34 27 26 26 32 34
21 22 22 25 25 24 26 21 23 25 27 28 30 31 32 31 29 28 28 30 33 35 36 35 35 37 40 41 42 42 44 45 45 46 46 47 46 46 46 47 48 51 52 51 47 41 34 30 26 25 29 32
19 21 22 25 24 22 28 22 23 25 28 29 28 30 29 31 30 28 28 29 30 36 37 38 39 38 38 41 43 41 42 43 44 45 45 45 45 45 45 46 46 48 50 49 46 41 35 30 28 25 29 30
20 21 21 23 23 21 28 22 23 25 27 27 27 27 30 31 29 28 28 29 28 34 33 39 39 39 38 38 39 41 41 42 42 43 44 44 45 45 45 45 44 45 47 47 44 40 35 29 26 25 25 27
18 20 20 23 23 22 24 23 25 26 25 26 27 26 29 30 29 28 28 28 28 29 32 37 39 38 37 37 39 40 39 42 42 42 43 43 43 44 45 42 42 43 45 47 43 39 36 30 20 25 25 26
14 17 17 22 23 22 22 25 25 24 25 27 26 27 29 29 29 28 28 27 28 28 31 35 36 37 39 39 39 38 38 41 41 42 41 41 42 43 44 44 41 42 41 45 42 40 36 32 26 22 24 25
16 16 18 21 21 21 24 26 24 24 26 27 26 28 29 28 27 28 27 28 28 29 30 31 34 35 37 36 40 37 39 39 40 40 40 41 42 43 44 43 39 40 40 44 42 41 37 33 29 25 25 24
13 15 16 17 19 19 26 23 23 24 25 26 27 28 28 28 27 27 26 26 28 29 30 31 33 34 34 35 36 37 38 40 40 39 39 39 41 42 43 42 42 42 42 44 44 43 39 34 29 26 25 24
11 13 15 17 16 19 22 21 22 24 25 26 26 26 27 28 27 27 26 27 28 27 28 30 31 32 32 34 35 36 38 40 41 40 39 39 39 40 40 41 41 41 40 41 43 43 42 38 32 27 25 23
11 12 14 15 17 18 21 21 22 23 24 25 25 25 24 27 27 26 27 28 27 27 28 27 28 29 29 32 34 39 38 39 39 39 40 40 39 40 38 38 39 40 39 40 40 40 40 39 36 30 26 25
11 12 13 15 20 18 21 21 22 22 24 25 25 24 25 26 26 27 27 27 27 26 26 26 27 27 29 32 34 37 38 37 38 39 39 40 40 38 37 38 38 39 39 38 39 39 39 40 38 34 29 25
13 13 12 13 15 17 20 20 21 22 24 25 24 23 24 25 26 27 27 27 27 26 26 26 26 27 29 30 35 36 37 37 38 38 38 39 39 40 38 38 37 37 38 39 39 39 39 39 39 37 32 27
10 9 9 12 15 18 16 18 22 22 23 22 22 23 23 25 25 26 26 26 26 25 26 27 27 28 29 30 35 35 36 37 37 36 37 36 38 39 38 38 37 36 38 39 40 39 39 39 38 38 37 32
7 6 6 9 11 14 15 17 18 19 20 21 22 23 25 25 25 24 26 26 26 25 25 26 27 27 28 30 34 34 34 35 36 36 36 35 36 37 37 38 38 38 38 38 40 40 40 39 38 38 38 37
6 5 7 7 11 14 16 16 19 20 19 20 20 22 23 24 25 25 24 25 25 26 25 26 26 27 29 33 33 33 33 34 35 34 34 34 34 35 36 37 38 38 38 37 37 38 39 39 39 39 38 37
5 4 6 10 12 12 9 8 8 11 16 19 20 22 23 25 24 25 25 23 24 23 25 26 26 27 30 32 32 33 32 33 33 33 33 34 35 35 35 34 38 38 37 36 36 37 38 37 38 38 38 37
4 5 8 11 11 6 2 1 2 5 8 15 18 20 23 24 24 24 23 21 22 23 25 24 24 27 29 31 31 31 32 32 33 33 33 34 34 35 35 33 37 38 38 34 34 34 35 38 36 36 37 37
5 4 11 11 5 1 0 0 1 2 6 8 14 19 22 23 24 23 20 21 22 23 23 24 24 25 27 30 31 31 31 32 32 33 33 33 32 31 33 34 36 36 37 33 35 36 35 33 34 34 33 35
8 9 11 8 5 3 1 0 5 3 3 4 5 9 13 22 21 17 19 19 20 20 22 24 24 25 28 28 31 31 31 31 31 32 32 32 32 32 30 31 32 37 37 36 35 28 30 30 34 31 33 34
9 12 9 5 5 5 4 3 4 3 3 3 6 7 7 8 10 13 13 14 17 19 21 24 25 26 26 30 31 31 31 31 31 31 31 31 31 30 30 29 31 33 36 36 38 31 25 29 31 32 35 35
11 7 4 2 2 1 3 3 3 3 4 4 2 5 8 10 9 9 10 11 14 17 20 23 26 28 27 27 28 29 29 30 31 30 31 31 30 30 30 29 30 29 32 36 37 37 36 33 32 33 33 33
10 5 1 1 2 2 3 3 4 2 3 4 5 8 7 8 8 9 7 8 11 16 20 23 27 26 22 23 24 24 27 27 27 28 29 30 31 29 29 31 29 28 29 31 34 35 36 36 36 35 33 29

ECMWFFLT2_sfc_dewp_033.txt.gz
Dewpoint
40 41 41 41 42 43 43 44 45 45 46 46 46 45 45 45 45 45 46 47 48 47 49 52 55 56 56 57 58 60 60 59 59 59 58 58 59 58 58 57 60 59 59 58 56 55 55 55 56 55 56 51
37 37 38 38 39 40 40 41 41 42 44 44 44 43 43 43 44 43 44 44 46 46 46 47 50 52 54 54 55 56 57 58 59 59 59 59 59 59 58 58 58 59 59 58 56 54 55 56 56 55 55 50
27 35 35 36 36 37 38 39 39 40 40 40 40 40 40 40 39 39 42 44 44 43 43 43 44 48 50 49 51 52 54 55 55 57 57 58 57 57 58 58 58 59 59 58 57 54 55 57 55 54 52 49
25 30 32 32 34 34 35 35 36 37 37 37 38 38 37 36 34 34 35 41 37 41 41 39 39 44 47 48 48 48 49 51 53 54 54 54 55 56 56 57 58 58 59 58 57 55 55 56 54 49 46 46
22 23 30 28 31 31 32 33 34 34 34 34 33 34 34 32 30 30 31 31 33 37 35 39 40 42 44 46 46 47 47 46 47 50 52 53 53 55 56 57 58 58 58 58 57 56 56 55 50 46 45 46
21 23 25 22 22 23 23 28 30 28 29 32 29 33 29 27 27 28 28 31 34 34 35 35 39 39 41 43 43 43 44 46 46 45 44 49 51 52 54 55 55 57 58 58 58 56 55 52 48 46 46 46
19 17 18 22 21 25 25 25 24 24 25 27 28 30 29 27 26 29 28 30 34 37 36 34 36 36 38 39 40 41 40 41 45 46 45 48 52 53 53 51 54 55 60 59 57 55 54 49 47 44 46 47
15 15 14 17 21 21 21 22 22 22 23 25 27 28 27 27 27 29 26 31 32 35 34 39 36 35 35 34 36 37 35 37 39 41 44 46 48 51 51 50 50 52 56 60 58 54 52 49 45 44 47 48
13 15 13 15 16 18 19 22 21 20 22 25 25 25 22 25 27 28 26 28 27 27 29 35 32 32 30 32 33 34 30 31 33 32 36 39 43 47 51 50 50 51 54 57 57 55 53 50 46 45 44 47
14 15 13 14 13 14 16 22 20 20 21 22 24 25 23 21 21 23 23 26 27 29 29 28 29 32 31 32 30 31 30 30 30 29 30 33 36 46 45 50 49 51 51 54 57 57 53 49 44 42 42 45
11 12 13 15 15 16 16 18 20 19 20 22 23 24 25 22 20 19 19 21 23 24 25 27 29 30 30 31 27 26 28 31 28 28 28 30 32 33 46 47 49 49 50 52 54 56 53 46 41 40 41 43
8 10 12 14 17 15 19 18 16 19 20 23 21 24 23 23 21 19 18 20 21 20 22 24 28 30 30 30 29 27 26 29 27 26 27 28 29 27 31 36 46 48 50 50 51 54 52 48 41 39 37 40
7 8 10 11 10 11 20 16 15 18 21 19 21 22 25 25 21 20 20 20 20 20 20 22 23 25 27 30 29 28 27 28 27 26 25 25 26 28 29 30 36 41 47 50 50 50 50 47 42 40 38 38
6 6 8 10 9 7 13 12 14 17 17 18 20 21 23 25 24 21 20 19 19 20 21 21 21 21 22 24 28 28 27 27 27 27 27 27 26 25 28 26 30 34 37 46 49 50 49 48 44 41 37 37
2 4 5 9 7 9 10 10 11 12 15 19 20 22 25 25 24 22 22 21 21 20 21 21 20 20 21 22 23 25 27 28 30 30 29 30 26 25 26 26 28 30 32 34 46 47 47 47 45 40 37 34
6 6 7 10 6 7 9 11 8 8 11 17 20 23 25 24 23 23 22 22 21 22 21 19 20 21 20 20 21 23 26 28 30 29 29 30 30 31 28 27 26 28 31 32 34 43 46 47 45 42 39 36
5 8 7 8 8 7 11 7 8 8 10 12 17 20 22 22 22 23 23 22 22 23 21 21 21 20 21 21 20 22 28 29 29 28 28 28 28 28 28 26 25 29 27 28 32 36 42 45 45 43 41 37
4 6 8 9 7 9 10 8 6 10 11 11 11 13 17 19 20 21 22 23 23 21 20 20 20 20 20 20 22 23 23 22 24 25 27 27 26 27 28 29 26 25 24 25 30 31 35 41 44 44 42 40
3 3 4 4 5 6 10 11 9 8 7 5 7 8 11 15 16 17 19 20 20 21 21 19 18 19 19 20 23 22 20 21 24 25 24 25 26 26 27 29 28 25 23 26 27 28 30 35 40 43 44 40
3 2 1 4 8 5 9 9 9 8 4 2 2 2 6 9 13 15 16 17 18 20 22 21 19 18 19 21 22 23 21 22 22 23 25 25 27 26 28 31 30 28 27 26 25 26 27 32 37 39 40 42
7 3 2 2 2 4 7 7 6 6 4 3 2 0 0 3 5 9 14 16 15 16 19 20 20 19 20 19 20 22 21 21 23 22 25 24 25 26 25 26 26 29 31 27 22 21 25 29 35 38 39 39
4 3 3 5 6 8 4 5 7 6 4 4 2 2 2 6 6 4 5 11 14 13 17 20 20 20 20 19 19 21 22 21 22 22 23 24 26 26 26 25 25 25 26 30 31 27 26 27 29 33 37 38
5 4 3 3 4 3 3 7 6 5 4 5 2 2 6 7 6 6 7 8 12 13 12 15 18 19 19 19 19 19 21 21 21 22 23 24 24 25 25 25 25 24 25 27 29 29 29 28 25 27 29 38
4 4 4 4 3 3 4 4 6 5 4 4 2 5 5 7 8 8 8 8 8 12 14 15 17 18 19 20 18 19 21 20 20 21 22 23 25 26 26 26 25 25 24 22 23 24 23 28 31 28 27 27
2 3 2 3 -0 1 -0 2 4 2 2 2 2 5 6 8 7 9 10 10 9 6 9 9 11 15 19 19 19 18 19 20 21 21 22 23 24 25 25 25 26 26 26 24 23 23 23 22 29 33 29 24
2 4 5 4 4 3 3 3 3 2 1 4 5 6 6 7 7 9 9 8 10 11 11 10 9 8 11 16 16 17 18 19 21 21 21 23 22 24 23 23 25 25 25 24 22 22 23 22 21 32 33 30
4 3 5 4 4 4 5 5 5 4 6 4 2 2 4 4 6 5 7 8 9 8 6 5 6 7 5 6 13 15 17 18 19 19 21 22 21 21 22 22 24 24 24 22 21 22 21 19 20 22 30 34
6 6 6 8 8 8 6 5 9 5 4 4 3 3 1 4 3 4 4 4 5 5 5 5 1 2 7 7 7 11 13 16 17 18 19 20 21 23 21 21 21 23 24 22 22 19 20 19 18 16 16 30
6 7 8 9 9 9 8 7 6 5 4 3 5 5 3 -0 1 2 3 3 3 5 4 4 1 0 6 8 8 8 9 13 16 18 19 20 21 21 21 21 20 21 21 23 23 20 20 19 18 19 18 20
10 9 9 8 7 7 6 7 5 4 4 4 2 -0 -1 0 -2 1 -2 1 2 1 3 2 1 2 7 9 8 10 9 9 14 17 18 18 19 20 21 21 21 21 21 21 22 24 21 20 18 18 20 24
9 7 6 6 6 7 6 5 5 3 3 2 1 4 1 1 -0 -1 -1 -2 -0 -1 1 2 2 6 9 8 8 9 9 10 14 17 17 18 19 19 22 22 22 21 21 21 21 24 24 24 23 22 20 18

ECMWFFLT2_sfc_dewp_036.txt.gz
Dewpoint
39 39 40 41 41 42 43 44 44 43 43 45 46 46 45 44 44 46 47 49 50 50 49 50 52 53 53 54 55 55 56 58 59 59 59 59 60 59 59 58 60 60 60 60 58 57 57 56 58 57 57 53
34 36 37 38 39 39 40 41 43 42 42 42 42 42 42 42 40 41 43 44 47 48 48 48 48 51 51 51 51 52 54 55 55 57 57 58 58 59 59 58 58 60 60 59 58 57 57 57 58 57 56 52
25 34 34 35 36 37 38 38 39 41 41 41 41 40 39 38 37 36 38 40 42 45 47 46 45 47 49 48 48 49 50 52 54 54 54 55 55 57 58 59 57 59 59 59 58 57 57 57 57 57 55 51
19 29 31 33 34 35 35 36 36 36 37 38 38 38 37 35 33 33 32 38 35 41 42 43 42 46 46 47 48 47 46 48 51 51 52 53 53 54 55 57 58 58 59 59 58 56 57 57 56 53 50 49
20 23 28 29 30 32 33 34 34 33 33 34 34 33 34 33 30 29 29 30 33 39 36 39 40 43 44 44 45 45 41 45 45 48 49 48 50 52 53 54 56 59 58 58 59 58 57 56 53 49 48 47
21 22 22 17 18 24 26 32 32 28 28 33 28 32 29 28 29 28 28 30 34 33 36 36 38 39 40 41 41 43 40 43 43 43 44 46 47 46 50 52 48 56 59 59 58 58 56 54 50 48 47 47
20 15 14 16 17 22 26 27 30 25 27 26 27 28 25 26 26 29 28 29 32 34 34 32 35 36 37 39 40 40 38 39 41 39 41 43 45 46 48 48 48 50 56 56 58 57 55 51 49 47 46 47
13 14 14 15 17 16 17 19 23 22 23 26 27 29 24 23 23 26 25 31 31 32 30 30 34 36 36 36 36 35 36 36 38 38 38 39 41 48 47 46 46 49 51 56 56 55 53 50 48 46 45 46
13 14 12 13 16 16 18 20 17 18 21 24 27 27 26 26 25 25 22 25 25 23 25 27 28 31 32 32 32 33 34 36 35 39 34 31 37 44 48 47 47 48 50 51 55 54 51 51 49 45 46 44
15 12 10 11 13 13 16 21 16 16 19 21 23 27 28 26 23 22 21 22 24 23 21 22 24 27 31 32 31 31 28 34 37 35 34 32 30 32 40 48 49 47 49 50 51 53 53 52 50 45 45 43
8 9 10 12 14 14 13 16 13 15 17 20 23 26 27 27 23 22 21 21 21 23 22 21 22 21 25 30 30 29 29 28 30 32 31 36 30 30 32 37 46 47 46 49 50 51 52 52 44 43 43 44
7 7 9 11 13 10 21 16 12 13 16 22 20 25 27 28 24 23 22 21 21 21 22 22 22 21 22 27 31 30 33 30 31 30 33 30 30 31 28 32 35 42 46 48 49 50 50 51 45 42 42 43
8 7 8 10 9 9 18 11 11 12 14 15 19 22 28 28 25 24 22 22 21 21 22 22 21 21 22 23 23 28 30 31 30 29 30 29 30 27 27 28 29 36 36 47 48 49 49 49 48 43 43 41
8 8 8 9 9 9 13 11 11 13 10 11 16 21 25 26 26 24 23 23 22 22 22 22 21 21 21 22 22 23 29 31 31 34 33 30 29 29 27 27 28 31 32 34 46 48 47 47 47 46 42 41
8 8 8 11 9 8 10 12 13 10 10 13 15 18 22 24 24 24 24 24 24 23 22 21 20 21 21 21 22 22 24 30 32 32 31 32 32 29 30 29 28 28 28 32 38 47 46 46 45 45 44 41
9 9 11 12 9 9 11 14 10 9 10 17 13 15 17 19 20 24 22 22 24 24 23 21 21 21 20 21 21 22 23 27 29 30 31 32 32 34 32 29 28 27 28 28 29 37 46 45 44 44 43 41
7 9 11 9 10 9 16 11 11 9 9 9 9 12 14 16 17 19 19 19 19 21 19 21 22 21 21 20 20 22 25 24 22 23 29 31 32 30 31 29 28 30 27 25 27 33 33 43 44 43 42 42
7 8 8 11 7 11 10 9 11 13 10 8 7 8 9 11 14 16 13 14 16 17 17 19 22 22 21 20 22 22 23 22 22 22 26 29 30 31 31 29 29 27 26 26 27 29 30 33 41 44 41 41
7 10 10 8 6 7 12 10 10 11 11 8 5 5 5 11 14 13 10 11 14 16 16 15 17 21 21 21 22 20 23 24 22 22 23 25 25 27 28 29 30 28 26 26 25 27 28 29 34 41 42 41
6 6 6 9 15 8 12 10 11 10 10 11 7 6 5 8 11 13 10 9 10 12 13 13 14 17 20 22 22 22 21 23 23 22 25 24 25 25 28 29 30 30 27 25 24 26 27 27 31 37 39 39
9 5 4 4 6 8 12 9 9 11 11 13 10 8 6 7 11 11 11 10 10 10 13 13 13 15 17 20 21 21 21 21 25 23 27 24 25 25 25 26 29 31 29 29 27 24 23 25 28 33 36 38
3 5 5 7 9 17 10 8 9 10 10 12 10 10 8 11 11 13 10 11 12 10 12 14 14 14 16 19 20 21 21 20 22 22 22 21 22 22 23 25 26 27 28 31 31 29 27 27 27 28 33 36
5 4 1 -0 1 3 2 8 10 11 10 12 8 9 12 14 12 11 11 13 14 11 9 9 11 13 14 17 19 19 19 19 21 23 22 22 23 25 24 25 25 25 27 31 32 32 31 29 28 27 27 32
5 5 6 5 4 3 5 2 11 10 10 8 8 15 13 11 10 11 12 12 12 11 9 10 10 10 12 12 13 16 18 18 18 19 21 22 23 24 26 27 26 26 26 26 25 25 26 27 29 29 29 26
6 5 4 5 4 5 3 7 9 6 5 7 8 11 11 12 10 10 12 14 15 10 11 12 10 8 7 8 10 9 11 15 16 18 20 22 22 23 22 23 24 26 27 25 25 26 25 25 25 29 30 28
7 9 11 9 6 5 6 6 7 7 6 9 10 10 10 10 9 10 10 13 9 8 9 8 7 6 6 5 6 9 11 10 19 16 18 19 20 21 21 22 24 25 26 25 24 23 23 24 25 26 28 29
10 9 11 10 9 8 8 8 8 8 10 9 8 7 8 9 8 8 7 7 9 9 8 6 6 5 5 5 7 5 6 7 8 12 14 16 18 19 21 22 24 23 24 23 23 24 23 22 21 25 30 30
9 11 11 9 9 9 8 7 10 7 7 7 6 6 7 8 7 7 6 6 5 6 4 4 4 4 5 4 5 4 4 7 7 8 11 14 17 20 19 20 21 24 24 24 23 21 21 22 21 19 19 29
3 5 5 7 8 9 9 8 7 6 6 5 8 8 5 5 6 7 6 5 4 6 5 5 4 4 3 3 3 4 5 8 9 8 9 11 16 18 19 20 21 22 22 23 24 22 21 16 17 17 19 22
2 2 -0 0 3 5 6 6 6 6 5 4 3 2 3 4 4 5 4 3 3 3 7 5 5 4 3 4 5 10 11 10 10 10 9 9 10 13 18 19 20 21 23 23 24 25 23 22 18 17 20 20
3 -1 -1 -1 -1 1 2 3 5 2 1 2 1 4 2 3 2 3 2 1 3 5 6 7 6 6 13 15 15 18 16 13 11 9 9 12 13 14 19 19 20 20 22 23 22 24 24 24 24 22 21 17

ECMWFFLT2_sfc_dewp_039.txt.gz
Dewpoint
37 38 38 40 40 40 42 42 42 43 44 44 43 44 44 43 42 43 44 47 48 48 49 49 52 53 53 54 54 53 53 54 54 55 55 55 58 59 60 61 59 60 61 61 60 59 59 58 58 58 58 52
33 36 36 37 38 38 39 40 40 40 41 41 41 40 39 40 39 40 41 42 45 46 46 46 48 51 51 52 53 51 51 52 52 52 53 54 54 55 56 59 60 59 61 60 61 59 59 58 58 58 57 52
22 33 34 35 36 36 36 38 38 39 39 39 38 38 36 36 36 36 38 39 40 42 43 43 43 46 49 50 51 50 50 50 50 49 51 52 53 53 52 55 57 59 59 60 60 59 59 58 57 58 56 51
18 27 31 32 33 34 35 36 35 36 36 36 36 35 35 34 32 34 32 36 33 38 38 39 40 44 46 47 48 47 47 49 50 48 48 50 50 51 50 51 52 55 58 60 59 59 58 58 57 55 51 50
19 22 27 26 30 31 32 33 32 33 34 34 35 34 33 31 26 27 28 28 29 34 31 35 37 40 43 44 44 45 44 45 48 48 47 46 47 47 48 49 49 50 54 57 59 59 58 57 55 51 49 48
20 21 20 14 16 21 24 30 29 23 25 31 26 36 28 25 25 25 24 28 35 29 31 29 34 35 38 41 41 42 42 43 45 46 47 46 43 43 45 46 44 45 49 52 54 59 57 55 51 49 48 47
19 14 12 13 15 20 25 26 23 17 22 21 23 31 28 28 24 26 24 26 31 32 31 28 32 33 35 38 39 39 38 40 42 42 44 44 43 41 42 41 43 45 47 49 51 56 56 52 50 48 47 46
14 13 13 12 14 14 14 19 16 14 17 19 22 26 30 26 27 26 23 31 31 31 25 25 30 31 32 33 35 36 35 38 40 40 40 40 40 40 39 39 41 43 43 47 49 51 53 50 49 47 45 45
12 10 10 11 14 13 12 17 12 12 15 16 20 22 29 28 28 26 24 24 23 23 23 23 22 22 22 24 27 33 29 32 37 42 40 40 41 41 41 41 42 43 43 42 46 49 50 51 50 47 45 42
14 9 8 8 12 11 9 17 11 11 13 14 18 20 29 28 25 25 24 24 24 23 23 23 22 21 21 23 25 27 27 31 33 36 37 41 41 40 41 40 38 42 44 42 44 48 49 50 52 50 45 43
10 9 9 9 12 12 10 13 11 11 12 13 16 20 28 28 24 24 23 24 24 23 23 23 22 21 22 22 22 23 24 28 31 32 32 37 37 40 41 39 38 39 41 42 42 45 47 49 49 47 46 44
10 10 10 11 13 10 15 16 12 11 12 15 12 21 23 27 24 23 23 24 24 24 23 23 23 22 22 21 21 22 23 26 31 31 32 30 30 39 41 40 39 39 37 39 41 43 45 48 49 48 45 43
11 10 11 11 12 10 16 13 12 13 12 10 14 15 18 21 21 22 22 23 23 23 22 22 22 22 21 21 21 22 22 24 28 29 31 30 30 31 34 40 39 40 39 34 35 41 44 47 48 48 46 44
13 13 14 13 15 13 14 13 15 15 11 10 14 11 15 16 18 22 19 19 18 19 19 19 20 22 22 21 21 21 21 23 25 27 29 27 28 31 31 31 34 39 38 37 36 37 42 45 47 47 47 46
14 14 12 20 16 15 13 15 19 15 11 13 12 11 14 14 15 20 15 13 13 16 17 17 18 20 22 22 21 21 22 22 23 23 23 24 27 30 31 32 35 34 34 38 38 37 37 41 44 45 46 46
16 16 14 22 16 14 14 20 15 15 14 19 13 14 14 11 13 23 12 10 11 13 13 15 16 18 20 21 21 22 22 22 22 23 23 23 26 31 33 33 32 32 33 32 36 31 35 39 41 42 45 45
11 13 16 15 14 15 23 15 13 13 14 14 14 18 17 12 13 19 13 11 10 16 10 13 14 15 18 19 21 22 22 22 22 21 22 22 24 25 28 30 31 34 31 31 34 31 30 32 33 39 42 44
12 12 13 19 13 20 19 12 11 18 16 17 18 17 16 14 15 19 12 13 11 9 9 11 13 14 15 17 19 20 21 21 21 22 21 22 23 25 25 26 28 33 33 33 31 30 30 28 31 28 33 42
8 12 14 14 11 11 15 12 13 12 13 14 13 15 11 16 19 21 16 16 13 11 10 11 13 13 14 15 18 19 21 22 21 21 22 23 23 23 22 23 26 30 32 35 34 30 28 27 29 29 27 33
5 5 6 10 21 14 16 13 12 12 11 13 15 15 14 16 19 21 17 15 16 13 12 12 12 12 13 15 17 19 19 20 20 21 23 23 23 22 21 22 22 25 29 30 32 35 31 30 28 30 29 29
5 5 6 6 8 10 13 12 11 11 12 14 13 12 13 15 19 17 18 17 16 16 15 14 11 11 13 16 14 13 13 14 17 18 21 21 23 22 22 22 22 23 25 28 30 30 33 32 31 26 26 29
5 7 8 9 10 17 11 11 10 11 14 14 14 14 13 16 17 18 16 15 15 16 18 17 13 11 13 11 9 8 8 8 10 12 14 15 18 20 22 22 22 23 24 27 29 30 30 32 34 32 28 26
11 10 11 11 10 10 10 9 11 13 11 14 13 11 15 18 16 17 15 14 16 15 16 13 13 16 11 9 8 7 6 5 7 9 8 10 14 18 20 22 23 24 25 26 27 27 27 30 31 32 32 29
11 8 10 10 9 9 9 8 13 13 10 10 10 18 16 15 14 13 16 15 15 16 14 14 15 12 11 9 8 6 5 5 5 6 7 8 12 13 15 18 21 23 24 23 23 25 26 26 27 28 30 29
4 4 6 4 4 4 5 9 10 9 9 11 13 14 13 13 13 13 13 15 14 10 10 11 10 9 9 9 13 9 7 7 6 6 7 7 8 11 12 14 18 21 23 22 21 23 24 25 26 28 28 27
2 2 4 1 1 0 1 3 6 8 8 10 10 10 12 14 12 11 10 12 10 9 8 6 6 6 6 7 7 11 13 8 14 5 5 6 6 9 11 12 16 20 21 20 20 21 22 23 24 25 26 25
2 1 3 0 -0 -0 0 1 4 7 10 9 9 8 10 10 9 8 7 8 10 9 7 5 5 4 5 5 10 7 5 5 4 4 4 5 8 9 10 13 16 18 21 20 21 22 22 21 21 25 28 27
2 4 2 1 1 1 1 1 5 4 6 7 6 7 6 6 7 7 7 7 6 6 5 5 5 5 6 6 9 8 5 4 3 4 6 9 11 11 9 10 11 17 20 21 20 19 20 20 21 20 21 22
1 3 0 0 0 2 2 2 2 3 3 2 4 4 3 2 3 4 5 5 4 7 5 6 6 7 7 6 8 11 11 11 12 13 13 13 13 11 10 10 10 11 15 19 23 22 21 18 16 18 20 21
1 1 -0 -1 -1 -1 1 2 1 1 -1 -0 -1 -1 -1 -1 -1 1 1 1 2 2 6 4 5 6 6 7 13 16 16 16 16 15 16 16 16 15 14 13 11 11 14 18 23 24 23 21 20 19 21 20
3 0 -2 -3 -2 -0 2 1 -0 -1 -2 -2 -2 0 -3 -2 -2 0 -0 -0 1 3 4 6 5 6 6 6 7 16 13 14 13 15 16 18 16 15 17 14 13 13 13 13 18 21 22 24 25 24 22 20

ECMWFFLT2_sfc_dewp_042.txt.gz
Dewpoint
34 37 37 38 39 40 41 41 42 43 43 43 44 43 42 41 39 39 41 44 45 46 46 47 49 51 52 53 53 53 53 54 55 54 54 54 55 56 57 58 58 59 60 61 61 61 61 60 59 58 58 52
31 34 35 35 36 37 38 39 39 40 41 41 41 42 40 38 37 37 39 40 42 43 43 44 45 49 50 51 51 52 52 53 53 54 54 53 52 53 53 55 56 56 57 58 60 61 60 59 58 58 57 52
21 30 33 32 34 34 36 37 37 38 38 38 38 39 38 37 35 35 36 38 39 41 40 40 41 44 49 49 50 50 50 51 51 52 52 53 52 51 51 51 52 53 55 55 56 60 60 59 58 58 57 51
18 25 30 29 31 31 33 35 34 33 35 35 33 36 37 35 32 31 29 36 32 37 37 37 36 41 45 46 47 46 47 48 50 50 50 50 50 50 48 48 47 49 51 53 52 54 57 58 58 56 52 51
19 22 26 23 27 29 29 32 32 30 30 31 28 30 35 32 28 26 25 27 29 34 30 34 35 38 40 42 43 43 43 44 48 48 48 48 48 47 47 45 44 45 47 49 50 51 52 58 57 54 51 49
18 21 18 11 14 20 19 27 28 19 19 25 18 28 29 28 27 25 24 28 32 29 30 30 34 36 37 39 39 40 40 40 43 45 46 46 45 45 44 44 41 41 43 44 46 48 49 52 53 51 49 48
17 14 11 11 12 20 20 22 21 14 17 15 17 20 25 28 26 27 25 28 31 31 32 28 33 34 35 37 37 38 36 37 40 42 42 43 43 43 42 42 43 43 41 41 42 45 47 49 51 50 48 46
12 15 11 10 11 13 9 16 16 11 13 14 15 18 22 25 25 26 24 30 31 30 25 25 29 32 31 32 32 35 30 33 36 39 41 41 41 42 41 41 41 42 43 41 40 42 45 47 49 50 49 46
13 17 12 12 12 13 9 16 12 10 11 13 13 16 18 21 22 24 23 24 23 23 22 22 21 21 22 23 22 30 23 24 29 35 37 41 42 40 40 40 41 41 41 42 41 42 43 44 49 49 49 44
18 18 12 12 12 15 10 20 12 11 10 11 12 15 16 17 16 21 21 20 20 21 20 19 20 20 21 22 22 25 22 23 24 28 30 34 37 41 42 40 40 41 41 41 41 42 42 43 46 48 48 46
15 14 14 13 17 19 12 19 13 13 11 12 13 15 15 16 12 19 16 15 15 17 17 17 18 18 20 20 21 22 22 22 22 23 25 28 30 36 40 41 41 41 41 41 40 41 41 42 43 45 46 47
14 14 14 16 20 17 25 21 15 15 16 17 11 18 15 19 12 18 13 11 12 14 13 14 16 17 17 19 20 21 22 21 21 22 22 23 24 26 31 37 40 41 40 40 40 40 40 41 42 43 44 47
14 14 15 16 15 15 24 17 14 17 18 13 15 15 18 21 13 18 11 10 10 11 10 11 13 14 15 18 18 20 19 21 21 21 22 22 22 23 26 32 36 40 40 41 41 40 39 40 41 41 43 43
15 14 14 15 15 14 22 16 15 21 16 14 15 13 17 16 17 20 12 11 11 11 9 10 12 14 15 16 17 18 19 20 21 21 22 21 22 23 24 26 29 37 38 40 40 40 39 39 40 41 41 41
15 17 15 16 16 16 15 15 25 18 15 16 16 16 19 16 15 24 14 12 12 12 10 10 11 13 14 14 15 17 18 20 21 21 21 21 22 23 23 25 28 30 30 37 39 39 39 39 39 39 40 41
10 11 13 16 12 14 14 21 19 16 15 24 16 18 20 18 14 25 15 14 13 14 10 10 12 13 14 13 15 17 17 18 18 19 20 21 23 23 23 23 23 26 29 30 36 38 38 39 38 39 40 39
8 10 11 11 10 13 21 20 16 12 12 14 14 19 19 18 17 22 19 15 15 20 12 12 13 13 15 13 16 15 15 14 14 15 16 18 20 21 22 21 22 25 25 28 31 37 37 38 38 38 38 39
5 9 10 16 11 15 14 12 12 17 15 18 19 19 18 17 18 22 17 17 14 14 13 13 13 13 12 14 15 13 12 11 10 10 11 13 14 18 18 19 21 22 22 24 28 31 35 37 39 39 38 38
9 11 11 11 13 12 14 15 11 12 12 12 12 15 13 16 21 25 18 17 17 15 15 15 13 12 12 16 14 11 11 10 8 8 9 10 9 10 12 16 20 20 20 22 23 26 31 34 36 39 37 38
10 10 11 12 16 13 13 11 10 11 11 13 15 16 13 15 22 23 16 17 18 15 15 15 13 11 15 15 11 11 10 10 7 7 10 8 7 7 8 13 14 16 19 20 21 24 27 32 36 36 38 37
10 9 10 9 9 11 11 8 8 12 11 11 11 11 12 15 21 19 17 17 16 14 15 16 13 13 13 13 9 8 8 6 10 7 10 6 8 5 6 8 9 11 15 18 21 22 23 27 32 34 36 37
6 7 7 6 6 9 6 4 6 10 10 10 10 11 12 15 16 19 16 15 14 13 17 13 12 13 10 10 8 7 6 6 6 7 6 5 4 6 6 5 8 10 13 18 20 20 21 22 27 32 35 36
5 4 5 3 1 2 3 2 4 7 8 10 10 11 13 16 16 15 15 14 14 11 13 10 10 10 10 9 9 7 6 5 8 9 6 5 4 7 6 7 9 10 14 17 17 19 20 21 23 25 32 35
4 4 6 2 1 1 1 -0 8 5 5 7 9 13 13 15 14 12 14 13 12 11 12 10 9 8 10 8 10 7 6 7 7 6 7 5 8 6 7 8 9 11 12 13 15 19 20 21 22 23 26 28
3 2 4 2 0 0 -1 2 4 1 2 5 8 12 14 12 11 8 9 11 10 9 10 9 8 7 7 7 10 10 9 9 9 10 9 8 8 10 7 8 10 11 13 14 14 16 18 20 21 24 25 25
1 2 5 1 1 -0 0 -0 -0 1 2 5 10 11 11 8 5 5 6 9 7 8 7 6 6 6 7 7 7 12 11 11 15 8 9 10 11 11 12 11 12 14 12 13 13 14 15 18 19 21 23 24
-0 -0 3 1 1 0 0 1 2 3 7 6 1 3 4 5 3 3 3 5 7 6 6 5 5 5 7 7 11 8 9 9 10 11 13 13 13 14 14 14 15 13 13 12 12 13 18 18 17 22 26 26
1 2 4 5 4 3 0 -1 5 5 4 1 0 2 2 2 2 2 3 3 3 6 6 6 6 6 6 7 9 10 11 11 12 14 14 13 15 15 13 13 13 16 15 12 12 13 17 18 19 18 20 22
1 5 3 2 0 2 1 1 4 1 -0 -0 1 2 -0 -0 1 2 3 4 4 9 6 7 6 6 6 6 7 9 8 9 12 15 14 14 15 14 14 12 12 14 15 14 15 14 13 14 13 14 19 21
3 5 -0 -2 -3 -4 -4 -2 2 -1 -1 -1 -3 -3 -1 -1 -1 1 2 4 6 5 8 6 6 6 6 6 6 8 8 8 11 11 10 13 15 15 13 13 13 12 13 15 16 16 14 14 16 18 19 19
5 1 -2 -3 -4 -4 -3 -2 0 -2 -2 -2 -3 0 -2 -2 -1 1 2 3 4 4 5 6 6 7 7 6 6 7 8 7 7 9 11 16 15 13 16 15 11 10 12 14 14 15 15 16 17 19 19 19